Location: Unspecified
(49.9820°N, 20.4363°E)
Time: 04:13:14
(UTC+02:00)

Vanguard 3 - Pass Details

Date: 14 May 2026
Orbit: 507 x 3204 km, 33.3° (Epoch: 6 June)

Event Time Altitude Azimuth Distance (km) Brightness Sun altitude
Rises 11:30:40 0° 180° (S) 6,452 12.2 56.2°
Reaches altitude 10° 11:38:02 10° 160° (SSE) 5,843 12.2 56.7°
Maximum altitude 11:46:14 15° 133° (SE) 5,680 12.2 57.2°
Drops below altitude 10° 11:54:41 10° 106° (ESE) 6,101 12.0 57.7°
Sets 12:02:34 0° 88° (E) 6,920 12.0 58.1°
